2018-111R (43891 NORAD) Tracking and Keplerian Element Data

This shows tracking and keplerian element data for the satellite.

Feedback or suggestion? Click here.




ElementValue
Catalog43891
Name2018-111R
Epoch Orbit392
Epoch Day21.84032877
Epoch Year2019
RAAN291.0155
Inclination97.2999
Eccentricity0.0027473
Argument of Perigee153.2472
Mean Anonmoly207.0189
Mean Motion15.22826182
Decay Rate1.12E-06
L11 43891U 18111R 19021.84032877 .00000112 00000-0 76988-5 0 9996
L22 43891 97.2999 291.0155 0027473 153.2472 207.0189 15.22826182 3920

Live tracking and technical data element details for 2018-111R (NORAD 43891). 2018-111R can be tracked NOW for your location showing map with azimuth and elevation plus other details from your city location.

Track the satellite on the map from your city or location and see movement details for azimuth, elevation, latitude, longitude, range, height, and movement on the map or in text.







IsCatalogInMostPopularTable: catalog: 43891, numindb: 17
Update: records affected: 1



GetName: 43891 2018-111R

Hit Count: updated at: Wed, 23 Jan 2019 03:23:36 GMT